Accueil
METAR-TAF:

METAR-TAF

Aéroports :

Saint-Brieuc, France

Aéroport de Saint-Brieuc Armor

latitude: 48-32N, longitude: 002-51W, altitude: 138 m

Observation

Le bulletin a été fait il y a 40 minutes, à 16:00 UTC
Vent 14 kt de nord-est
Température 5°C
Humidité 70%
Pression 1018 hPa
Visibilité: 9000 m
Quelques nuages à une hauteur de 2400 ft

METAR: LFRT 221600Z AUTO 05014KT 9000 FEW024 05/M00 Q1018

Heure: 17:40 (16:40 UTC)


TAF: absent

Observations et prévisions météorologiques de plus de 4000 aéroports (messages METAR et TAF).

Les stations disponibles sont représentées par des disques jaunes et rouges sur la carte.

Passer la souris dessus pour voir le nom de la station.

Cliquer dessus pour voir les observations et prévisions météorologiques.

Pour changer de carte: cliquez sur les boutons verts avec une croix noire pour zoomer, sur le bouton vert avec un tiret pour effectuer un zoom arrière, ou sur les flèches vertes pour les cartes adjacentes.


METAR-TAF: